Time,TemperatureF,DewpointF,PressureIn,WindDirection,WindDirectionDegrees,WindSpeedMPH,WindSpeedGustMPH,Humidity,HourlyPrecipIn,Conditions,Clouds,dailyrainin,SoftwareType,DateUTC
2013-05-07 00:00:00,42.8,35.8,29.93,ESE,115,6.0,12.0,76,0.04,,CLR,0.11,VWS V14.01,2013-05-07 06:00:00,
2013-05-07 00:01:00,42.5,36.1,29.94,SE,136,3.0,6.0,78,0.04,,BKN090,0.00,VWS V14.01,2013-05-07 06:01:00,
2013-05-07 00:06:00,42.2,36.5,29.94,East,99,3.0,6.0,80,0.04,,BKN090,0.00,VWS V14.01,2013-05-07 06:06:00,
2013-05-07 00:11:00,41.5,36.7,29.94,SE,130,3.0,6.0,83,0.04,,BKN090,0.00,VWS V14.01,2013-05-07 06:11:00,
2013-05-07 00:16:00,41.4,36.9,29.94,ESE,120,2.0,6.0,84,0.04,,BKN090,0.00,VWS V14.01,2013-05-07 06:16:00,
2013-05-07 00:21:00,41.4,36.9,29.94,ESE,104,5.0,7.0,84,0.04,,BKN090,0.00,VWS V14.01,2013-05-07 06:21:00,
2013-05-07 00:26:00,41.5,36.7,29.94,ESE,120,4.0,9.0,83,0.04,,BKN090,0.00,VWS V14.01,2013-05-07 06:26:00,
2013-05-07 00:30:00,41.7,36.6,29.94,SE,146,7.0,9.0,82,0.04,,CLR,0.00,VWS V14.01,2013-05-07 06:30:00,
2013-05-07 00:31:00,42.2,36.5,29.94,SE,125,10.0,11.0,80,0.04,,OVC120,0.00,VWS V14.01,2013-05-07 06:31:00,
2013-05-07 00:36:00,42.5,36.5,29.94,ESE,117,7.0,11.0,79,0.04,,OVC120,0.00,VWS V14.01,2013-05-07 06:36:00,
2013-05-07 00:41:00,42.5,36.8,29.94,ESE,113,5.0,11.0,80,0.04,,OVC120,0.00,VWS V14.01,2013-05-07 06:41:00,
2013-05-07 00:46:00,42.5,36.8,29.94,ESE,123,4.0,11.0,80,0.04,,OVC110,0.00,VWS V14.01,2013-05-07 06:46:00,
2013-05-07 00:51:00,42.7,36.7,29.94,East,100,5.0,11.0,79,0.04,,OVC110,0.00,VWS V14.01,2013-05-07 06:51:00,
2013-05-07 00:56:00,42.4,36.7,29.94,SE,141,5.0,11.0,80,0.04,,OVC110,0.00,VWS V14.01,2013-05-07 06:56:00,
2013-05-07 01:00:00,42.4,36.7,29.94,ESE,111,6.0,11.0,80,0.04,,CLR,0.00,VWS V14.01,2013-05-07 07:00:00,
2013-05-07 01:01:00,42.2,36.8,29.94,SSE,151,4.0,7.0,81,0.00,,BKN110,0.00,VWS V14.01,2013-05-07 07:01:00,
2013-05-07 01:06:00,42.5,36.5,29.94,SE,126,6.0,9.0,79,0.00,,BKN110,0.00,VWS V14.01,2013-05-07 07:06:00,
2013-05-07 01:11:00,42.4,36.4,29.94,ESE,118,4.0,9.0,79,0.00,,BKN110,0.00,VWS V14.01,2013-05-07 07:11:00,
2013-05-07 01:16:00,42.5,36.5,29.94,ESE,110,5.0,9.0,79,0.00,,BKN110,0.00,VWS V14.01,2013-05-07 07:16:00,
2013-05-07 01:21:00,42.8,36.1,29.94,ESE,114,5.0,9.0,77,0.00,,BKN110,0.00,VWS V14.01,2013-05-07 07:21:00,
2013-05-07 01:26:00,42.9,35.9,29.93,East,96,4.0,9.0,76,0.00,,BKN110,0.00,VWS V14.01,2013-05-07 07:26:00,
2013-05-07 01:30:00,43.0,36.0,29.93,SE,130,6.0,9.0,76,0.00,,CLR,0.00,VWS V14.01,2013-05-07 07:30:00,
2013-05-07 01:31:00,43.2,35.8,29.93,SE,132,6.0,12.0,75,0.00,,OVC110,0.00,VWS V14.01,2013-05-07 07:31:00,
2013-05-07 01:36:00,43.0,36.0,29.94,ESE,120,7.0,12.0,76,0.00,,OVC110,0.00,VWS V14.01,2013-05-07 07:36:00,
2013-05-07 01:41:00,42.8,36.1,29.93,SE,136,4.0,12.0,77,0.00,,OVC110,0.00,VWS V14.01,2013-05-07 07:41:00,
2013-05-07 01:46:00,43.2,35.8,29.94,SE,127,0.0,12.0,75,0.00,,OVC110,0.00,VWS V14.01,2013-05-07 07:46:00,
2013-05-07 01:51:00,43.1,35.7,29.94,SW,229,4.0,12.0,75,0.00,,OVC110,0.00,VWS V14.01,2013-05-07 07:51:00,
2013-05-07 01:56:00,43.3,35.2,29.94,West,266,0.0,12.0,73,0.00,,OVC110,0.00,VWS V14.01,2013-05-07 07:56:00,
2013-05-07 02:00:00,43.4,35.3,29.94,West,267,1.0,12.0,73,0.00,,CLR,0.00,VWS V14.01,2013-05-07 08:00:00,
2013-05-07 02:01:00,42.7,35.7,29.94,East,100,0.0,3.0,76,0.00,,OVC120,0.00,VWS V14.01,2013-05-07 08:01:00,
2013-05-07 02:06:00,41.8,35.5,29.94,South,191,1.0,3.0,78,0.00,,OVC120,0.00,VWS V14.01,2013-05-07 08:06:00,
2013-05-07 02:12:00,41.5,35.2,29.94,South,190,0.0,3.0,78,0.00,,OVC120,0.00,VWS V14.01,2013-05-07 08:12:00,
2013-05-07 02:17:00,41.3,35.0,29.94,South,191,0.0,3.0,78,0.00,,OVC120,0.00,VWS V14.01,2013-05-07 08:17:00,
2013-05-07 02:22:00,41.2,35.2,29.94,NNW,345,0.0,4.0,79,0.00,,OVC120,0.00,VWS V14.01,2013-05-07 08:22:00,
2013-05-07 02:27:00,40.1,35.1,29.95,North,9,1.0,6.0,82,0.00,,OVC120,0.00,VWS V14.01,2013-05-07 08:27:00,
2013-05-07 02:30:00,40.1,35.1,29.95,North,9,1.0,6.0,82,0.00,,CLR,0.00,VWS V14.01,2013-05-07 08:30:00,
2013-05-07 02:32:00,39.4,35.0,29.95,NE,49,2.0,3.0,84,0.00,,BKN110,0.00,VWS V14.01,2013-05-07 08:32:00,
2013-05-07 02:37:00,39.0,34.9,29.95,East,84,4.0,5.0,85,0.00,,BKN110,0.00,VWS V14.01,2013-05-07 08:37:00,
2013-05-07 02:42:00,39.0,35.2,29.94,East,79,4.0,6.0,86,0.00,,BKN110,0.00,VWS V14.01,2013-05-07 08:42:00,
2013-05-07 02:47:00,39.3,35.2,29.94,ESE,105,2.0,6.0,85,0.00,,FEW110,0.00,VWS V14.01,2013-05-07 08:47:00,
2013-05-07 02:52:00,39.3,35.5,29.94,East,97,0.0,6.0,86,0.00,,FEW110,0.00,VWS V14.01,2013-05-07 08:52:00,
2013-05-07 02:57:00,39.4,35.6,29.95,SE,127,0.0,0.0,86,0.00,,FEW110,0.00,VWS V14.01,2013-05-07 08:57:00,
2013-05-07 03:00:00,39.4,35.6,29.95,SE,127,0.0,6.0,86,0.00,,CLR,0.00,VWS V14.01,2013-05-07 09:00:00,
2013-05-07 03:02:00,39.5,35.4,29.94,SE,143,0.0,0.0,85,0.00,,BKN110,0.00,VWS V14.01,2013-05-07 09:02:00,
2013-05-07 03:07:00,39.8,35.4,29.95,SE,136,0.0,0.0,84,0.00,,BKN110,0.00,VWS V14.01,2013-05-07 09:07:00,
2013-05-07 03:12:00,39.9,35.5,29.95,SE,135,0.0,0.0,84,0.00,,BKN110,0.00,VWS V14.01,2013-05-07 09:12:00,
2013-05-07 03:17:00,40.2,35.5,29.95,SE,136,0.0,0.0,83,0.00,,BKN110,0.00,VWS V14.01,2013-05-07 09:17:00,
2013-05-07 03:22:00,40.4,35.3,29.95,SE,136,0.0,0.0,82,0.00,,BKN110,0.00,VWS V14.01,2013-05-07 09:22:00,
2013-05-07 03:27:00,40.2,35.2,29.95,SE,134,0.0,0.0,82,0.00,,BKN110,0.00,VWS V14.01,2013-05-07 09:27:00,
2013-05-07 03:30:00,40.2,35.2,29.95,SE,135,0.0,0.0,82,0.00,,CLR,0.00,VWS V14.01,2013-05-07 09:30:00,
2013-05-07 03:32:00,39.9,35.2,29.95,SSE,148,0.0,0.0,83,0.00,,BKN110,0.00,VWS V14.01,2013-05-07 09:32:00,
2013-05-07 03:37:00,39.8,35.4,29.95,SE,129,0.0,0.0,84,0.00,,BKN110,0.00,VWS V14.01,2013-05-07 09:37:00,
2013-05-07 03:42:00,39.7,35.3,29.95,SE,136,0.0,0.0,84,0.00,,BKN110,0.00,VWS V14.01,2013-05-07 09:42:00,
2013-05-07 03:47:00,39.8,35.1,29.95,ESE,117,4.0,4.0,83,0.00,,FEW100,0.00,VWS V14.01,2013-05-07 09:47:00,
2013-05-07 03:52:00,39.8,35.1,29.95,ESE,120,5.0,5.0,83,0.00,,FEW100,0.00,VWS V14.01,2013-05-07 09:52:00,
2013-05-07 03:57:00,39.6,34.9,29.95,SE,129,3.0,3.0,83,0.00,,FEW100,0.00,VWS V14.01,2013-05-07 09:57:00,
2013-05-07 04:00:00,39.6,34.9,29.95,SE,132,3.0,5.0,83,0.00,,CLR,0.00,VWS V14.01,2013-05-07 10:00:00,
2013-05-07 04:02:00,39.7,34.7,29.95,ESE,117,2.0,6.0,82,0.00,,FEW100,0.00,VWS V14.01,2013-05-07 10:02:00,
2013-05-07 04:07:00,39.7,34.4,29.95,SE,127,1.0,6.0,81,0.00,,FEW100,0.00,VWS V14.01,2013-05-07 10:07:00,
2013-05-07 04:12:00,39.9,34.2,29.95,ESE,121,1.0,6.0,80,0.00,,FEW100,0.00,VWS V14.01,2013-05-07 10:12:00,
2013-05-07 04:17:00,40.0,34.0,29.95,ESE,121,1.0,6.0,79,0.00,,FEW100,0.00,VWS V14.01,2013-05-07 10:17:00,
2013-05-07 04:22:00,39.5,33.8,29.95,ESE,108,0.0,6.0,80,0.00,,FEW100,0.00,VWS V14.01,2013-05-07 10:22:00,
2013-05-07 04:27:00,39.1,33.8,29.94,East,101,1.0,2.0,81,0.00,,FEW100,0.00,VWS V14.01,2013-05-07 10:27:00,
2013-05-07 04:30:00,39.2,33.6,29.94,ESE,105,2.0,6.0,80,0.00,,CLR,0.00,VWS V14.01,2013-05-07 10:30:00,
2013-05-07 04:32:00,38.7,33.7,29.95,ESE,105,3.0,3.0,82,0.00,,CLR,0.00,VWS V14.01,2013-05-07 10:32:00,
2013-05-07 04:38:00,38.5,33.8,29.95,ESE,117,4.0,5.0,83,0.00,,CLR,0.00,VWS V14.01,2013-05-07 10:38:00,
2013-05-07 04:43:00,38.4,33.7,29.95,East,82,3.0,5.0,83,0.00,,CLR,0.00,VWS V14.01,2013-05-07 10:43:00,
2013-05-07 04:48:00,38.3,33.6,29.95,ESE,117,2.0,5.0,83,0.00,,CLR,0.00,VWS V14.01,2013-05-07 10:48:00,
2013-05-07 04:53:00,38.1,33.4,29.95,ESE,113,1.0,5.0,83,0.00,,CLR,0.00,VWS V14.01,2013-05-07 10:53:00,
2013-05-07 04:58:00,38.1,33.7,29.95,ESE,116,2.0,4.0,84,0.00,,CLR,0.00,VWS V14.01,2013-05-07 10:58:00,
2013-05-07 05:00:00,38.1,33.7,29.95,ESE,120,3.0,5.0,84,0.00,,CLR,0.00,VWS V14.01,2013-05-07 11:00:00,
2013-05-07 05:03:00,38.1,33.4,29.95,SE,133,3.0,4.0,83,0.00,,CLR,0.00,VWS V14.01,2013-05-07 11:03:00,
2013-05-07 05:08:00,38.1,33.4,29.95,SE,125,3.0,4.0,83,0.00,,CLR,0.00,VWS V14.01,2013-05-07 11:08:00,
2013-05-07 05:13:00,37.9,33.2,29.95,SE,129,2.0,4.0,83,0.00,,CLR,0.00,VWS V14.01,2013-05-07 11:13:00,
2013-05-07 05:18:00,37.9,33.2,29.95,ESE,113,2.0,4.0,83,0.00,,CLR,0.00,VWS V14.01,2013-05-07 11:18:00,
2013-05-07 05:23:00,37.8,33.1,29.95,ESE,120,2.0,4.0,83,0.00,,CLR,0.00,VWS V14.01,2013-05-07 11:23:00,
2013-05-07 05:28:00,37.7,33.0,29.95,ESE,117,3.0,3.0,83,0.00,,CLR,0.00,VWS V14.01,2013-05-07 11:28:00,
2013-05-07 05:30:00,37.7,33.0,29.95,ESE,117,3.0,4.0,83,0.00,,CLR,0.00,VWS V14.01,2013-05-07 11:30:00,
2013-05-07 05:33:00,37.5,33.1,29.95,SE,124,4.0,4.0,84,0.00,,CLR,0.00,VWS V14.01,2013-05-07 11:33:00,
2013-05-07 05:38:00,37.3,32.9,29.95,ESE,110,2.0,4.0,84,0.00,,CLR,0.00,VWS V14.01,2013-05-07 11:38:00,
2013-05-07 05:43:00,37.1,32.7,29.95,SE,127,0.0,4.0,84,0.00,,CLR,0.00,VWS V14.01,2013-05-07 11:43:00,
2013-05-07 05:48:00,36.4,32.0,29.95,South,173,0.0,4.0,84,0.00,,CLR,0.00,VWS V14.01,2013-05-07 11:48:00,
2013-05-07 05:53:00,35.9,32.1,29.96,South,172,0.0,4.0,86,0.00,,CLR,0.00,VWS V14.01,2013-05-07 11:53:00,
2013-05-07 05:58:00,35.8,32.0,29.96,ESE,118,0.0,0.0,86,0.00,,CLR,0.00,VWS V14.01,2013-05-07 11:58:00,
2013-05-07 06:00:00,35.9,32.1,29.96,ESE,116,0.0,4.0,86,0.00,,CLR,0.00,VWS V14.01,2013-05-07 12:00:00,
2013-05-07 06:03:00,35.6,32.1,29.96,ESE,117,0.0,0.0,87,0.00,,CLR,0.00,VWS V14.01,2013-05-07 12:03:00,
2013-05-07 06:08:00,35.4,32.2,29.96,ESE,105,0.0,0.0,88,0.00,,CLR,0.00,VWS V14.01,2013-05-07 12:08:00,
2013-05-07 06:13:00,35.4,32.2,29.96,ESE,106,0.0,0.0,88,0.00,,CLR,0.00,VWS V14.01,2013-05-07 12:13:00,
2013-05-07 06:18:00,35.7,32.8,29.96,ESE,105,0.0,0.0,89,0.00,,CLR,0.00,VWS V14.01,2013-05-07 12:18:00,
2013-05-07 06:23:00,35.8,32.6,29.96,ESE,120,0.0,0.0,88,0.00,,CLR,0.00,VWS V14.01,2013-05-07 12:23:00,
2013-05-07 06:28:00,36.1,33.2,29.96,SE,129,0.0,0.0,89,0.00,,CLR,0.00,VWS V14.01,2013-05-07 12:28:00,
2013-05-07 06:30:00,36.0,32.8,29.96,SE,129,0.0,0.0,88,0.00,,CLR,0.00,VWS V14.01,2013-05-07 12:30:00,
2013-05-07 06:33:00,36.2,33.0,29.96,SE,129,0.0,0.0,88,0.00,,CLR,0.00,VWS V14.01,2013-05-07 12:33:00,
2013-05-07 06:38:00,36.5,33.0,29.96,SE,130,0.0,0.0,87,0.00,,CLR,0.00,VWS V14.01,2013-05-07 12:38:00,
2013-05-07 06:43:00,37.4,33.9,29.96,SE,129,0.0,0.0,87,0.00,,CLR,0.00,VWS V14.01,2013-05-07 12:43:00,
2013-05-07 06:48:00,38.3,34.5,29.97,South,180,0.0,0.0,86,0.00,,CLR,0.00,VWS V14.01,2013-05-07 12:48:00,
2013-05-07 06:53:00,39.0,35.2,29.97,South,180,0.0,0.0,86,0.00,,CLR,0.00,VWS V14.01,2013-05-07 12:53:00,
2013-05-07 06:58:00,40.4,36.3,29.97,South,180,0.0,0.0,85,0.00,,CLR,0.00,VWS V14.01,2013-05-07 12:58:00,
2013-05-07 07:00:00,39.8,36.0,29.97,South,180,0.0,0.0,86,0.00,,CLR,0.00,VWS V14.01,2013-05-07 13:00:00,
2013-05-07 07:03:00,42.4,37.6,29.97,South,180,0.0,0.0,83,0.00,,CLR,0.00,VWS V14.01,2013-05-07 13:03:00,
2013-05-07 07:09:00,43.6,37.2,29.97,South,180,0.0,0.0,78,0.00,,CLR,0.00,VWS V14.01,2013-05-07 13:09:00,
2013-05-07 07:14:00,43.6,35.9,29.96,South,180,0.0,0.0,74,0.00,,CLR,0.00,VWS V14.01,2013-05-07 13:14:00,
2013-05-07 07:19:00,43.1,35.7,29.97,South,181,0.0,0.0,75,0.00,,CLR,0.00,VWS V14.01,2013-05-07 13:19:00,
2013-05-07 07:24:00,42.2,35.5,29.97,WSW,252,0.0,0.0,77,0.00,,CLR,0.00,VWS V14.01,2013-05-07 13:24:00,
2013-05-07 07:29:00,42.2,36.2,29.97,WSW,254,0.0,0.0,79,0.00,,CLR,0.00,VWS V14.01,2013-05-07 13:29:00,
2013-05-07 07:30:00,42.0,35.7,29.97,WSW,253,0.0,0.0,78,0.00,,CLR,0.00,VWS V14.01,2013-05-07 13:30:00,
2013-05-07 07:34:00,43.3,36.6,29.97,WSW,253,0.0,0.0,77,0.00,,CLR,0.00,VWS V14.01,2013-05-07 13:34:00,
2013-05-07 07:39:00,44.5,37.1,29.97,WSW,253,0.0,0.0,75,0.00,,CLR,0.00,VWS V14.01,2013-05-07 13:39:00,
2013-05-07 07:44:00,44.2,36.8,29.97,WSW,253,0.0,0.0,75,0.00,,CLR,0.00,VWS V14.01,2013-05-07 13:44:00,
2013-05-07 07:49:00,43.8,36.4,29.97,WSW,257,0.0,0.0,75,0.00,,CLR,0.00,VWS V14.01,2013-05-07 13:49:00,
2013-05-07 07:54:00,43.5,36.5,29.97,West,269,0.0,0.0,76,0.00,,CLR,0.00,VWS V14.01,2013-05-07 13:54:00,
2013-05-07 07:59:00,43.4,36.7,29.97,West,274,0.0,0.0,77,0.00,,CLR,0.00,VWS V14.01,2013-05-07 13:59:00,
2013-05-07 08:00:00,43.4,36.7,29.97,West,271,0.0,0.0,77,0.00,,CLR,0.00,VWS V14.01,2013-05-07 14:00:00,
2013-05-07 08:04:00,43.8,36.7,29.96,West,274,0.0,0.0,76,0.00,,CLR,0.00,VWS V14.01,2013-05-07 14:04:00,
2013-05-07 08:09:00,44.7,37.6,29.96,West,274,0.0,0.0,76,0.00,,CLR,0.00,VWS V14.01,2013-05-07 14:09:00,
2013-05-07 08:14:00,44.6,37.5,29.96,West,274,0.0,0.0,76,0.00,,CLR,0.00,VWS V14.01,2013-05-07 14:14:00,
2013-05-07 08:19:00,45.0,37.9,29.96,West,274,0.0,0.0,76,0.00,,CLR,0.00,VWS V14.01,2013-05-07 14:19:00,
2013-05-07 08:24:00,45.9,38.8,29.97,West,281,0.0,0.0,76,0.00,,CLR,0.00,VWS V14.01,2013-05-07 14:24:00,
2013-05-07 08:29:00,47.0,38.8,29.97,West,281,0.0,0.0,73,0.00,,CLR,0.00,VWS V14.01,2013-05-07 14:29:00,
2013-05-07 08:30:00,46.6,38.8,29.97,West,281,0.0,0.0,74,0.00,,CLR,0.00,VWS V14.01,2013-05-07 14:30:00,
2013-05-07 08:34:00,48.1,39.5,29.96,West,281,0.0,0.0,72,0.00,,CLR,0.00,VWS V14.01,2013-05-07 14:34:00,
2013-05-07 08:39:00,49.1,39.0,29.97,NNW,335,0.0,0.0,68,0.00,,CLR,0.00,VWS V14.01,2013-05-07 14:39:00,
2013-05-07 08:44:00,49.0,38.2,29.97,North,8,0.0,0.0,66,0.00,,CLR,0.00,VWS V14.01,2013-05-07 14:44:00,
2013-05-07 08:49:00,49.4,36.9,29.97,WNW,289,0.0,0.0,62,0.00,,CLR,0.00,VWS V14.01,2013-05-07 14:49:00,
2013-05-07 08:54:00,49.7,37.6,29.96,NNE,30,0.0,0.0,63,0.00,,CLR,0.00,VWS V14.01,2013-05-07 14:54:00,
2013-05-07 08:59:00,50.8,37.8,29.96,ENE,77,0.0,0.0,61,0.00,,CLR,0.00,VWS V14.01,2013-05-07 14:59:00,
2013-05-07 09:00:00,50.4,37.5,29.96,North,349,0.0,0.0,61,0.00,,CLR,0.00,VWS V14.01,2013-05-07 15:00:00,
2013-05-07 09:04:00,51.3,36.6,29.96,WSW,238,2.0,4.0,57,0.00,,CLR,0.00,VWS V14.01,2013-05-07 15:04:00,
2013-05-07 09:09:00,51.6,37.8,29.96,ESE,117,0.0,4.0,59,0.00,,CLR,0.00,VWS V14.01,2013-05-07 15:09:00,
2013-05-07 09:14:00,52.3,36.6,29.96,NW,311,0.0,4.0,55,0.00,,CLR,0.00,VWS V14.01,2013-05-07 15:14:00,
2013-05-07 09:19:00,51.2,35.1,29.96,West,277,2.0,5.0,54,0.00,,CLR,0.00,VWS V14.01,2013-05-07 15:19:00,
2013-05-07 09:24:00,51.3,36.2,29.96,WSW,255,0.0,6.0,56,0.00,,CLR,0.00,VWS V14.01,2013-05-07 15:24:00,
2013-05-07 09:29:00,51.4,35.3,29.96,NW,323,1.0,3.0,54,0.00,,CLR,0.00,VWS V14.01,2013-05-07 15:29:00,
2013-05-07 09:30:00,51.5,35.4,29.96,WNW,297,2.0,6.0,54,0.00,,CLR,0.00,VWS V14.01,2013-05-07 15:30:00,
2013-05-07 09:34:00,51.6,35.5,29.96,NW,316,1.0,4.0,54,0.00,,CLR,0.00,VWS V14.01,2013-05-07 15:34:00,
2013-05-07 09:39:00,51.8,34.3,29.96,NW,312,3.0,4.0,51,0.00,,CLR,0.00,VWS V14.01,2013-05-07 15:39:00,
2013-05-07 09:44:00,52.2,34.6,29.96,WNW,283,4.0,6.0,51,0.00,,CLR,0.00,VWS V14.01,2013-05-07 15:44:00,
2013-05-07 09:49:00,52.2,34.6,29.96,West,259,3.0,6.0,51,0.00,,CLR,0.00,VWS V14.01,2013-05-07 15:49:00,
2013-05-07 09:54:00,52.9,34.8,29.96,SW,222,4.0,7.0,50,0.00,,CLR,0.00,VWS V14.01,2013-05-07 15:54:00,
2013-05-07 09:59:00,53.7,35.0,29.96,SW,221,4.0,6.0,49,0.00,,CLR,0.00,VWS V14.01,2013-05-07 15:59:00,
2013-05-07 10:00:00,53.3,34.7,29.96,SSW,210,3.0,7.0,49,0.00,,CLR,0.00,VWS V14.01,2013-05-07 16:00:00,
2013-05-07 10:04:00,53.8,34.1,29.96,West,263,6.0,9.0,47,0.00,,CLR,0.00,VWS V14.01,2013-05-07 16:04:00,
2013-05-07 10:09:00,53.6,32.8,29.96,NW,304,2.0,9.0,45,0.00,,CLR,0.00,VWS V14.01,2013-05-07 16:09:00,
2013-05-07 10:15:00,53.8,32.4,29.96,West,269,0.0,9.0,44,0.00,,CLR,0.00,VWS V14.01,2013-05-07 16:15:00,
2013-05-07 10:20:00,54.4,32.4,29.95,NNW,332,2.0,9.0,43,0.00,,CLR,0.00,VWS V14.01,2013-05-07 16:20:00,
2013-05-07 10:25:00,54.5,32.5,29.95,WNW,297,4.0,9.0,43,0.00,,CLR,0.00,VWS V14.01,2013-05-07 16:25:00,
2013-05-07 10:30:00,54.4,32.4,29.96,WNW,291,2.0,5.0,43,0.00,,CLR,0.00,VWS V14.01,2013-05-07 16:30:00,
2013-05-07 10:35:00,55.0,32.3,29.95,North,349,6.0,7.0,42,0.00,,SCT055,0.00,VWS V14.01,2013-05-07 16:35:00,
2013-05-07 10:40:00,56.0,33.2,29.95,NNE,22,0.0,7.0,42,0.00,,SCT055,0.00,VWS V14.01,2013-05-07 16:40:00,
2013-05-07 10:45:00,57.0,33.5,29.95,WNW,286,2.0,7.0,41,0.00,,SCT055,0.00,VWS V14.01,2013-05-07 16:45:00,
2013-05-07 10:50:00,58.0,33.8,29.95,ENE,60,1.0,7.0,40,0.00,,OVC055,0.00,VWS V14.01,2013-05-07 16:50:00,
2013-05-07 10:55:00,58.1,33.9,29.95,WNW,297,5.0,9.0,40,0.00,,OVC055,0.00,VWS V14.01,2013-05-07 16:55:00,
2013-05-07 11:00:00,56.6,32.0,29.95,West,259,7.0,11.0,39,0.00,,OVC055,0.00,VWS V14.01,2013-05-07 17:00:00,
2013-05-07 11:05:00,56.3,32.3,29.95,NW,316,2.0,11.0,40,0.00,,BKN055,0.00,VWS V14.01,2013-05-07 17:05:00,
2013-05-07 11:10:00,56.5,30.6,29.95,SE,144,1.0,11.0,37,0.00,,BKN055,0.00,VWS V14.01,2013-05-07 17:10:00,
2013-05-07 11:15:00,56.3,31.0,29.95,West,281,2.0,11.0,38,0.00,,BKN055,0.00,VWS V14.01,2013-05-07 17:15:00,
2013-05-07 11:20:00,55.5,31.0,29.94,WSW,238,9.0,11.0,39,0.00,,BKN055,0.00,VWS V14.01,2013-05-07 17:20:00,
2013-05-07 11:25:00,56.2,31.6,29.94,WSW,253,6.0,11.0,39,0.00,,BKN055,0.00,VWS V14.01,2013-05-07 17:25:00,
2013-05-07 11:30:00,56.5,31.2,29.94,West,278,7.0,14.0,38,0.00,,BKN055,0.00,VWS V14.01,2013-05-07 17:30:00,
2013-05-07 11:35:00,57.2,31.8,29.94,WSW,254,15.0,15.0,38,0.00,,SCT065,0.00,VWS V14.01,2013-05-07 17:35:00,
2013-05-07 11:40:00,57.8,29.6,29.94,West,281,6.0,15.0,34,0.00,,SCT065,0.00,VWS V14.01,2013-05-07 17:40:00,
2013-05-07 11:45:00,58.5,31.7,29.94,SSW,193,7.0,15.0,36,0.00,,SCT065,0.00,VWS V14.01,2013-05-07 17:45:00,
2013-05-07 11:50:00,58.1,29.9,29.93,SW,231,6.0,15.0,34,0.00,,BKN070,0.00,VWS V14.01,2013-05-07 17:50:00,
2013-05-07 11:55:00,58.3,30.1,29.93,SW,229,7.0,15.0,34,0.00,,BKN070,0.00,VWS V14.01,2013-05-07 17:55:00,
2013-05-07 12:00:00,59.2,30.1,29.93,WSW,243,6.0,12.0,33,0.00,,BKN070,0.00,VWS V14.01,2013-05-07 18:00:00,
2013-05-07 12:05:00,59.5,29.6,29.92,WNW,300,7.0,12.0,32,0.00,,OVC080,0.00,VWS V14.01,2013-05-07 18:05:00,
2013-05-07 12:10:00,58.4,29.4,29.92,SW,233,6.0,12.0,33,0.00,,OVC080,0.00,VWS V14.01,2013-05-07 18:10:00,
2013-05-07 12:15:00,58.7,27.4,29.92,SSW,208,5.0,12.0,30,0.00,,OVC080,0.00,VWS V14.01,2013-05-07 18:15:00,
2013-05-07 12:20:00,59.1,28.5,29.92,WSW,246,13.0,15.0,31,0.00,,OVC080,0.00,VWS V14.01,2013-05-07 18:20:00,
2013-05-07 12:25:00,59.2,26.1,29.91,NW,312,3.0,18.0,28,0.00,,OVC080,0.00,VWS V14.01,2013-05-07 18:25:00,
2013-05-07 12:30:00,59.0,26.8,29.91,WNW,293,0.0,7.0,29,0.00,,OVC080,0.00,VWS V14.01,2013-05-07 18:30:00,
2013-05-07 12:35:00,59.9,25.0,29.91,SSW,201,7.0,11.0,26,0.00,,OVC080,0.00,VWS V14.01,2013-05-07 18:35:00,
2013-05-07 12:40:00,60.5,23.5,29.90,South,176,14.0,16.0,24,0.00,,OVC080,0.00,VWS V14.01,2013-05-07 18:40:00,
2013-05-07 12:45:00,61.4,23.3,29.90,West,259,5.0,16.0,23,0.00,,BKN070,0.00,VWS V14.01,2013-05-07 18:45:00,
2013-05-07 12:50:00,60.5,23.5,29.91,West,276,8.0,17.0,24,0.00,,BKN070,0.00,VWS V14.01,2013-05-07 18:50:00,
2013-05-07 12:55:00,60.1,26.0,29.90,WNW,300,4.0,17.0,27,0.00,,BKN070,0.00,VWS V14.01,2013-05-07 18:55:00,
2013-05-07 13:00:00,60.8,22.8,29.89,North,358,3.0,9.0,23,0.00,,BKN070,0.00,VWS V14.01,2013-05-07 19:00:00,
2013-05-07 13:05:00,60.5,23.5,29.89,West,271,6.0,10.0,24,0.00,,BKN080,0.00,VWS V14.01,2013-05-07 19:05:00,
2013-05-07 13:11:00,61.6,25.5,29.89,West,274,6.0,15.0,25,0.00,,BKN080,0.00,VWS V14.01,2013-05-07 19:11:00,
2013-05-07 13:16:00,62.2,22.9,29.89,South,171,1.0,15.0,22,0.00,,BKN080,0.00,VWS V14.01,2013-05-07 19:16:00,
2013-05-07 13:21:00,61.7,21.4,29.89,East,98,1.0,15.0,21,0.00,,BKN080,0.00,VWS V14.01,2013-05-07 19:21:00,
2013-05-07 13:26:00,62.0,24.8,29.89,NE,47,0.0,15.0,24,0.00,,BKN080,0.00,VWS V14.01,2013-05-07 19:26:00,
2013-05-07 13:30:00,62.4,25.2,29.88,NW,309,3.0,15.0,24,0.00,,CLR,0.00,VWS V14.01,2013-05-07 19:30:00,
2013-05-07 13:31:00,63.0,24.6,29.88,SW,224,6.0,14.0,23,0.00,,BKN080,0.00,VWS V14.01,2013-05-07 19:31:00,
2013-05-07 13:36:00,63.2,24.8,29.88,SW,220,4.0,14.0,23,0.00,,BKN090,0.00,VWS V14.01,2013-05-07 19:36:00,
2013-05-07 13:41:00,62.5,25.2,29.88,NW,308,7.0,14.0,24,0.00,,BKN090,0.00,VWS V14.01,2013-05-07 19:41:00,
2013-05-07 13:46:00,62.8,25.5,29.88,WNW,290,4.0,14.0,24,0.00,,OVC090,0.00,VWS V14.01,2013-05-07 19:46:00,
2013-05-07 13:51:00,63.6,24.1,29.88,West,262,10.0,14.0,22,0.00,,OVC090,0.00,VWS V14.01,2013-05-07 19:51:00,
2013-05-07 13:56:00,63.5,26.1,29.87,WNW,284,8.0,14.0,24,0.00,,OVC090,0.00,VWS V14.01,2013-05-07 19:56:00,
2013-05-07 14:00:00,63.6,24.1,29.87,WSW,255,4.0,14.0,22,0.00,,CLR,0.00,VWS V14.01,2013-05-07 20:00:00,
2013-05-07 14:01:00,62.8,24.5,29.87,WNW,298,7.0,12.0,23,0.00,,OVC090,0.00,VWS V14.01,2013-05-07 20:01:00,
2013-05-07 14:06:00,61.9,26.7,29.87,WNW,293,5.0,12.0,26,0.00,,OVC090,0.00,VWS V14.01,2013-05-07 20:06:00,
2013-05-07 14:11:00,62.9,25.6,29.86,SW,214,4.0,12.0,24,0.00,,OVC090,0.00,VWS V14.01,2013-05-07 20:11:00,
2013-05-07 14:16:00,62.2,24.0,29.86,West,273,7.0,14.0,23,0.00,,OVC090,0.00,VWS V14.01,2013-05-07 20:16:00,
2013-05-07 14:21:00,61.9,25.7,29.86,West,277,8.0,14.0,25,0.00,,OVC090,0.00,VWS V14.01,2013-05-07 20:21:00,
2013-05-07 14:26:00,62.4,25.2,29.86,SW,215,4.0,14.0,24,0.00,,OVC090,0.00,VWS V14.01,2013-05-07 20:26:00,
2013-05-07 14:30:00,62.7,26.4,29.86,West,266,12.0,14.0,25,0.00,,CLR,0.00,VWS V14.01,2013-05-07 20:30:00,
2013-05-07 14:31:00,62.1,24.9,29.86,West,277,0.0,13.0,24,0.00,,OVC090,0.00,VWS V14.01,2013-05-07 20:31:00,
2013-05-07 14:36:00,62.6,25.3,29.86,West,260,8.0,13.0,24,0.00,,OVC090,0.00,VWS V14.01,2013-05-07 20:36:00,
2013-05-07 14:41:00,62.2,26.0,29.86,WNW,290,6.0,13.0,25,0.00,,OVC090,0.00,VWS V14.01,2013-05-07 20:41:00,
2013-05-07 14:46:00,62.5,25.2,29.85,WSW,251,3.0,13.0,24,0.00,,OVC100,0.00,VWS V14.01,2013-05-07 20:46:00,
2013-05-07 14:51:00,63.7,25.2,29.85,SW,216,2.0,13.0,23,0.00,,OVC100,0.00,VWS V14.01,2013-05-07 20:51:00,
2013-05-07 14:56:00,63.5,25.1,29.85,SW,219,6.0,14.0,23,0.00,,OVC100,0.00,VWS V14.01,2013-05-07 20:56:00,
2013-05-07 15:00:00,63.4,25.0,29.85,SW,236,10.0,14.0,23,0.00,,CLR,0.00,VWS V14.01,2013-05-07 21:00:00,
2013-05-07 15:01:00,62.5,24.2,29.84,WSW,249,6.0,10.0,23,0.00,,BKN100,0.00,VWS V14.01,2013-05-07 21:01:00,
2013-05-07 15:06:00,62.1,24.9,29.84,South,174,3.0,10.0,24,0.00,,BKN100,0.00,VWS V14.01,2013-05-07 21:06:00,
2013-05-07 15:11:00,62.6,25.3,29.84,ENE,75,1.0,10.0,24,0.00,,BKN100,0.00,VWS V14.01,2013-05-07 21:11:00,
2013-05-07 15:16:00,63.2,24.8,29.83,SSE,148,0.0,10.0,23,0.00,,BKN100,0.00,VWS V14.01,2013-05-07 21:16:00,
2013-05-07 15:21:00,63.0,24.6,29.83,SW,221,7.0,11.0,23,0.00,,BKN100,0.00,VWS V14.01,2013-05-07 21:21:00,
2013-05-07 15:26:00,63.2,24.8,29.82,SSE,162,2.0,11.0,23,0.00,,BKN100,0.00,VWS V14.01,2013-05-07 21:26:00,
2013-05-07 15:30:00,63.3,24.9,29.82,South,183,2.0,11.0,23,0.00,,CLR,0.00,VWS V14.01,2013-05-07 21:30:00,
2013-05-07 15:31:00,63.7,24.2,29.82,SW,217,8.0,10.0,22,0.00,,BKN110,0.00,VWS V14.01,2013-05-07 21:31:00,
2013-05-07 15:36:00,64.3,23.6,29.82,SSE,165,1.0,10.0,21,0.00,,BKN110,0.00,VWS V14.01,2013-05-07 21:36:00,
2013-05-07 15:41:00,65.3,24.4,29.81,West,266,11.0,15.0,21,0.00,,BKN110,0.00,VWS V14.01,2013-05-07 21:41:00,
2013-05-07 15:46:00,65.4,23.3,29.81,WSW,243,7.0,18.0,20,0.00,,BKN120,0.00,VWS V14.01,2013-05-07 21:46:00,
2013-05-07 15:51:00,65.8,23.6,29.81,West,259,15.0,18.0,20,0.00,,BKN120,0.00,VWS V14.01,2013-05-07 21:51:00,
2013-05-07 15:56:00,66.0,23.8,29.81,West,273,12.0,18.0,20,0.00,,BKN120,0.00,VWS V14.01,2013-05-07 21:56:00,
2013-05-07 16:00:00,66.0,23.8,29.81,WSW,257,15.0,18.0,20,0.00,,CLR,0.00,VWS V14.01,2013-05-07 22:00:00,
2013-05-07 16:01:00,65.6,24.6,29.81,West,264,15.0,18.0,21,0.00,,SCT120,0.00,VWS V14.01,2013-05-07 22:01:00,
2013-05-07 16:06:00,65.3,23.2,29.80,West,276,7.0,18.0,20,0.00,,SCT120,0.00,VWS V14.01,2013-05-07 22:06:00,
2013-05-07 16:12:00,65.2,21.9,29.80,West,279,5.0,18.0,19,0.00,,SCT120,0.00,VWS V14.01,2013-05-07 22:12:00,
2013-05-07 16:17:00,65.1,23.1,29.79,West,263,4.0,18.0,20,0.00,,SCT120,0.00,VWS V14.01,2013-05-07 22:17:00,
2013-05-07 16:22:00,66.0,23.8,29.79,West,262,5.0,18.0,20,0.00,,SCT120,0.00,VWS V14.01,2013-05-07 22:22:00,
2013-05-07 16:27:00,65.4,22.1,29.79,WNW,298,5.0,18.0,19,0.00,,SCT120,0.00,VWS V14.01,2013-05-07 22:27:00,
2013-05-07 16:30:00,65.3,22.0,29.79,WNW,302,5.0,18.0,19,0.00,,CLR,0.00,VWS V14.01,2013-05-07 22:30:00,
2013-05-07 16:32:00,64.5,22.6,29.78,NW,311,5.0,14.0,20,0.00,,BKN110,0.00,VWS V14.01,2013-05-07 22:32:00,
2013-05-07 16:37:00,64.3,22.4,29.78,West,277,8.0,14.0,20,0.00,,BKN110,0.00,VWS V14.01,2013-05-07 22:37:00,
2013-05-07 16:42:00,65.0,23.0,29.78,West,273,13.0,14.0,20,0.00,,BKN110,0.00,VWS V14.01,2013-05-07 22:42:00,
2013-05-07 16:47:00,64.4,22.5,29.78,WSW,243,13.0,18.0,20,0.00,,BKN110,0.00,VWS V14.01,2013-05-07 22:47:00,
2013-05-07 16:52:00,63.9,22.1,29.78,West,259,14.0,18.0,20,0.00,,BKN110,0.00,VWS V14.01,2013-05-07 22:52:00,
2013-05-07 16:57:00,63.3,21.6,29.78,West,260,11.0,18.0,20,0.00,,BKN110,0.00,VWS V14.01,2013-05-07 22:57:00,
2013-05-07 17:00:00,63.3,21.6,29.78,West,259,11.0,18.0,20,0.00,,CLR,0.00,VWS V14.01,2013-05-07 23:00:00,
2013-05-07 17:02:00,62.6,22.1,29.78,West,262,12.0,16.0,21,0.00,,SCT100,0.00,VWS V14.01,2013-05-07 23:02:00,
2013-05-07 17:07:00,62.1,21.7,29.78,WSW,245,19.0,19.0,21,0.00,,SCT100,0.00,VWS V14.01,2013-05-07 23:07:00,
2013-05-07 17:12:00,61.6,21.3,29.79,WSW,256,11.0,19.0,21,0.00,,SCT100,0.00,VWS V14.01,2013-05-07 23:12:00,
2013-05-07 17:17:00,61.2,22.1,29.79,WSW,258,15.0,19.0,22,0.00,,SCT100,0.00,VWS V14.01,2013-05-07 23:17:00,
2013-05-07 17:22:00,60.8,21.7,29.80,WSW,257,19.0,21.0,22,0.00,,SCT100,0.00,VWS V14.01,2013-05-07 23:22:00,
2013-05-07 17:27:00,59.7,25.7,29.80,WSW,249,15.0,25.0,27,0.00,,SCT100,0.00,VWS V14.01,2013-05-07 23:27:00,
2013-05-07 17:30:00,59.7,25.7,29.80,WSW,238,25.0,34.0,27,0.00,,CLR,0.00,VWS V14.01,2013-05-07 23:30:00,
2013-05-07 17:32:00,57.8,27.4,29.81,WSW,246,23.0,30.0,31,0.00,,CLR,0.00,VWS V14.01,2013-05-07 23:32:00,
2013-05-07 17:37:00,56.7,27.9,29.82,WSW,243,15.0,30.0,33,0.00,,CLR,0.00,VWS V14.01,2013-05-07 23:37:00,
2013-05-07 17:42:00,55.6,29.1,29.82,WSW,246,13.0,30.0,36,0.00,,CLR,0.00,VWS V14.01,2013-05-07 23:42:00,
2013-05-07 17:47:00,54.9,29.1,29.82,West,277,11.0,30.0,37,0.00,,BKN100,0.00,VWS V14.01,2013-05-07 23:47:00,
2013-05-07 17:52:00,54.5,29.4,29.82,West,276,8.0,30.0,38,0.00,,BKN100,0.00,VWS V14.01,2013-05-07 23:52:00,
2013-05-07 17:57:00,54.0,30.2,29.82,West,267,12.0,15.0,40,0.00,,BKN100,0.00,VWS V14.01,2013-05-07 23:57:00,
2013-05-07 18:00:00,54.1,30.3,29.82,West,271,13.0,30.0,40,0.00,,CLR,0.00,VWS V14.01,2013-05-08 00:00:00,
2013-05-07 18:02:00,54.0,30.2,29.81,West,268,5.0,15.0,40,0.00,,OVC100,0.00,VWS V14.01,2013-05-08 00:02:00,
2013-05-07 18:07:00,54.6,30.2,29.80,South,184,1.0,15.0,39,0.00,,OVC100,0.00,VWS V14.01,2013-05-08 00:07:00,
2013-05-07 18:12:00,55.0,30.5,29.81,East,81,1.0,15.0,39,0.00,,OVC100,0.00,VWS V14.01,2013-05-08 00:12:00,
2013-05-07 18:17:00,55.2,30.1,29.80,East,96,1.0,15.0,38,0.00,,OVC100,0.00,VWS V14.01,2013-05-08 00:17:00,
2013-05-07 18:22:00,55.4,29.6,29.80,ENE,75,3.0,15.0,37,0.00,,OVC100,0.00,VWS V14.01,2013-05-08 00:22:00,
2013-05-07 18:27:00,55.9,30.0,29.80,ENE,75,6.0,7.0,37,0.00,,OVC100,0.00,VWS V14.01,2013-05-08 00:27:00,
2013-05-07 18:30:00,55.8,29.9,29.80,East,79,5.0,15.0,37,0.00,,CLR,0.00,VWS V14.01,2013-05-08 00:30:00,
2013-05-07 18:33:00,56.6,29.3,29.79,East,96,5.0,7.0,35,0.00,,BKN120,0.00,VWS V14.01,2013-05-08 00:33:00,
2013-05-07 18:39:00,56.5,27.0,29.79,ESE,110,3.0,7.0,32,0.00,,BKN120,0.00,VWS V14.01,2013-05-08 00:39:00,
2013-05-07 18:44:00,56.7,27.2,29.78,NE,50,3.0,7.0,32,0.00,,BKN120,0.00,VWS V14.01,2013-05-08 00:44:00,
2013-05-07 18:49:00,56.9,26.6,29.79,East,88,1.0,7.0,31,0.00,,CLR,0.00,VWS V14.01,2013-05-08 00:49:00,
2013-05-07 18:54:00,57.2,26.9,29.79,East,87,0.0,7.0,31,0.00,,CLR,0.00,VWS V14.01,2013-05-08 00:54:00,
2013-05-07 18:59:00,57.8,28.2,29.79,East,87,0.0,0.0,32,0.00,,CLR,0.00,VWS V14.01,2013-05-08 00:59:00,
2013-05-07 19:00:00,57.5,27.1,29.79,East,88,0.0,7.0,31,0.00,,CLR,0.00,VWS V14.01,2013-05-08 01:00:00,
2013-05-07 19:04:00,58.8,26.6,29.79,NW,326,1.0,2.0,29,0.00,,BKN100,0.00,VWS V14.01,2013-05-08 01:04:00,
2013-05-07 19:09:00,59.2,26.1,29.79,NNW,328,0.0,3.0,28,0.00,,BKN100,0.00,VWS V14.01,2013-05-08 01:09:00,
2013-05-07 19:14:00,58.9,25.9,29.79,NW,314,1.0,3.0,28,0.00,,BKN100,0.00,VWS V14.01,2013-05-08 01:14:00,
2013-05-07 19:19:00,58.3,26.2,29.79,WSW,257,2.0,5.0,29,0.00,,BKN100,0.00,VWS V14.01,2013-05-08 01:19:00,
2013-05-07 19:24:00,58.0,26.8,29.79,West,278,3.0,5.0,30,0.00,,BKN100,0.00,VWS V14.01,2013-05-08 01:24:00,
2013-05-07 19:29:00,57.6,27.2,29.79,WNW,298,2.0,4.0,31,0.00,,BKN100,0.00,VWS V14.01,2013-05-08 01:29:00,
2013-05-07 19:30:00,57.8,27.4,29.79,West,271,3.0,5.0,31,0.00,,CLR,0.00,VWS V14.01,2013-05-08 01:30:00,
2013-05-07 19:34:00,57.2,27.6,29.79,West,278,3.0,4.0,32,0.00,,OVC100,0.00,VWS V14.01,2013-05-08 01:34:00,
2013-05-07 19:39:00,56.7,27.9,29.79,West,262,1.0,5.0,33,0.00,,OVC100,0.00,VWS V14.01,2013-05-08 01:39:00,
2013-05-07 19:44:00,56.3,27.6,29.80,West,260,1.0,5.0,33,0.00,,OVC100,0.00,VWS V14.01,2013-05-08 01:44:00,
2013-05-07 19:49:00,56.0,28.8,29.80,NW,323,2.0,5.0,35,0.00,,SCT100,0.00,VWS V14.01,2013-05-08 01:49:00,
2013-05-07 19:54:00,55.7,28.5,29.80,WNW,290,6.0,6.0,35,0.00,,SCT100,0.00,VWS V14.01,2013-05-08 01:54:00,
2013-05-07 19:59:00,55.2,28.7,29.80,NNW,334,5.0,6.0,36,0.00,,SCT100,0.00,VWS V14.01,2013-05-08 01:59:00,
2013-05-07 20:00:00,55.5,28.3,29.80,WNW,296,4.0,11.0,35,0.00,,CLR,0.00,VWS V14.01,2013-05-08 02:00:00,
2013-05-07 20:04:00,54.7,29.0,29.80,NNW,333,6.0,6.0,37,0.00,,SCT090,0.00,VWS V14.01,2013-05-08 02:04:00,
2013-05-07 20:09:00,54.2,29.2,29.80,NNW,338,1.0,6.0,38,0.00,,SCT090,0.00,VWS V14.01,2013-05-08 02:09:00,
2013-05-07 20:14:00,53.7,29.4,29.80,NE,44,0.0,6.0,39,0.00,,SCT090,0.00,VWS V14.01,2013-05-08 02:14:00,
2013-05-07 20:19:00,53.2,28.9,29.81,SW,217,0.0,6.0,39,0.00,,SCT090,0.00,VWS V14.01,2013-05-08 02:19:00,
2013-05-07 20:24:00,52.8,29.2,29.81,SW,218,2.0,6.0,40,0.00,,SCT090,0.00,VWS V14.01,2013-05-08 02:24:00,
2013-05-07 20:30:00,52.2,29.8,29.81,SW,217,0.0,0.0,42,0.00,,SCT090,0.00,VWS V14.01,2013-05-08 02:30:00,
2013-05-07 20:35:00,51.5,29.2,29.81,SE,136,1.0,1.0,42,0.00,,FEW120,0.00,VWS V14.01,2013-05-08 02:35:00,
2013-05-07 20:40:00,50.8,29.7,29.81,SE,134,3.0,4.0,44,0.00,,FEW120,0.00,VWS V14.01,2013-05-08 02:40:00,
2013-05-07 20:45:00,50.0,29.5,29.81,ESE,108,3.0,4.0,45,0.00,,FEW120,0.00,VWS V14.01,2013-05-08 02:45:00,
2013-05-07 20:50:00,49.4,29.5,29.81,SE,127,3.0,4.0,46,0.00,,BKN110,0.00,VWS V14.01,2013-05-08 02:50:00,
2013-05-07 20:55:00,48.9,29.6,29.81,SE,136,3.0,4.0,47,0.00,,BKN110,0.00,VWS V14.01,2013-05-08 02:55:00,
2013-05-07 21:00:00,48.5,29.7,29.81,SE,126,2.0,4.0,48,0.00,,BKN110,0.00,VWS V14.01,2013-05-08 03:00:00,
2013-05-07 21:05:00,48.2,29.5,29.81,SE,138,3.0,4.0,48,0.00,,FEW110,0.00,VWS V14.01,2013-05-08 03:05:00,
2013-05-07 21:10:00,48.2,29.5,29.81,ESE,120,2.0,4.0,48,0.00,,FEW110,0.00,VWS V14.01,2013-05-08 03:10:00,
2013-05-07 21:15:00,47.7,29.5,29.81,ESE,118,3.0,4.0,49,0.00,,FEW110,0.00,VWS V14.01,2013-05-08 03:15:00,
2013-05-07 21:20:00,48.0,29.3,29.81,SE,131,2.0,5.0,48,0.00,,FEW110,0.00,VWS V14.01,2013-05-08 03:20:00,
2013-05-07 21:25:00,48.7,29.4,29.82,ESE,106,3.0,7.0,47,0.00,,FEW110,0.00,VWS V14.01,2013-05-08 03:25:00,
2013-05-07 21:30:00,49.1,29.2,29.81,SE,138,6.0,7.0,46,0.00,,FEW110,0.00,VWS V14.01,2013-05-08 03:30:00,
2013-05-07 21:35:00,49.7,29.2,29.82,SE,145,3.0,9.0,45,0.00,,CLR,0.00,VWS V14.01,2013-05-08 03:35:00,
2013-05-07 21:40:00,49.8,29.3,29.82,SE,130,2.0,9.0,45,0.00,,CLR,0.00,VWS V14.01,2013-05-08 03:40:00,
2013-05-07 21:45:00,49.7,28.7,29.82,ESE,115,2.0,9.0,44,0.00,,CLR,0.00,VWS V14.01,2013-05-08 03:45:00,
2013-05-07 21:50:00,49.4,29.0,29.82,ESE,123,4.0,9.0,45,0.00,,CLR,0.00,VWS V14.01,2013-05-08 03:50:00,
2013-05-07 21:55:00,49.3,28.9,29.82,ESE,122,4.0,9.0,45,0.00,,CLR,0.00,VWS V14.01,2013-05-08 03:55:00,
2013-05-07 22:00:00,49.3,28.9,29.82,SE,146,5.0,11.0,45,0.00,,CLR,0.00,VWS V14.01,2013-05-08 04:00:00,
2013-05-07 22:01:00,49.5,29.1,29.82,South,177,4.0,11.0,45,0.00,,CLR,0.00,VWS V14.01,2013-05-08 04:01:00,
2013-05-07 22:02:00,49.5,29.1,29.82,SSE,149,4.0,11.0,45,0.00,,CLR,0.00,VWS V14.01,2013-05-08 04:02:00,
2013-05-07 22:03:00,49.6,29.1,29.82,ESE,117,4.0,11.0,45,0.00,,CLR,0.00,VWS V14.01,2013-05-08 04:03:00,
2013-05-07 22:05:00,49.5,29.1,29.81,East,100,3.0,11.0,45,0.00,,CLR,0.00,VWS V14.01,2013-05-08 04:05:00,
2013-05-07 22:08:00,49.4,29.0,29.81,ESE,118,7.0,11.0,45,0.00,,CLR,0.00,VWS V14.01,2013-05-08 04:08:00,
2013-05-07 22:13:00,49.3,28.9,29.81,ESE,112,6.0,11.0,45,0.00,,CLR,0.00,VWS V14.01,2013-05-08 04:13:00,
2013-05-07 22:18:00,49.2,29.3,29.81,East,86,8.0,11.0,46,0.00,,CLR,0.00,VWS V14.01,2013-05-08 04:18:00,
2013-05-07 22:23:00,49.1,28.7,29.81,ESE,118,9.0,11.0,45,0.00,,CLR,0.00,VWS V14.01,2013-05-08 04:23:00,
2013-05-07 22:28:00,49.2,28.8,29.81,SE,135,5.0,7.0,45,0.00,,CLR,0.00,VWS V14.01,2013-05-08 04:28:00,
2013-05-07 22:30:00,49.1,28.7,29.81,SE,141,6.0,11.0,45,0.00,,CLR,0.00,VWS V14.01,2013-05-08 04:30:00,
2013-05-07 22:33:00,49.3,28.9,29.81,ESE,122,2.0,7.0,45,0.00,,SCT095,0.00,VWS V14.01,2013-05-08 04:33:00,
2013-05-07 22:38:00,49.1,29.2,29.81,SE,131,3.0,7.0,46,0.00,,SCT095,0.00,VWS V14.01,2013-05-08 04:38:00,
2013-05-07 22:43:00,48.8,29.0,29.81,ESE,103,4.0,7.0,46,0.00,,SCT095,0.00,VWS V14.01,2013-05-08 04:43:00,
2013-05-07 22:48:00,48.6,28.8,29.81,East,95,5.0,7.0,46,0.00,,BKN110,0.00,VWS V14.01,2013-05-08 04:48:00,
2013-05-07 22:53:00,48.4,28.6,29.81,SE,126,5.0,10.0,46,0.00,,BKN110,0.00,VWS V14.01,2013-05-08 04:53:00,
2013-05-07 22:58:00,48.7,28.9,29.81,SE,124,7.0,8.0,46,0.00,,BKN110,0.00,VWS V14.01,2013-05-08 04:58:00,
2013-05-07 23:00:00,48.6,28.8,29.81,SE,130,7.0,11.0,46,0.00,,CLR,0.00,VWS V14.01,2013-05-08 05:00:00,
2013-05-07 23:03:00,48.9,28.5,29.81,ESE,120,7.0,9.0,45,0.00,,OVC090,0.00,VWS V14.01,2013-05-08 05:03:00,
2013-05-07 23:08:00,48.2,29.5,29.82,West,271,6.0,9.0,48,0.00,,OVC090,0.00,VWS V14.01,2013-05-08 05:08:00,
2013-05-07 23:13:00,47.9,28.7,29.82,SSW,197,5.0,16.0,47,0.00,,OVC090,0.00,VWS V14.01,2013-05-08 05:13:00,
2013-05-07 23:18:00,47.8,30.1,29.83,SW,231,9.0,16.0,50,0.00,,OVC090,0.00,VWS V14.01,2013-05-08 05:18:00,
2013-05-07 23:23:00,47.6,30.9,29.83,WSW,250,6.0,16.0,52,0.00,,OVC090,0.00,VWS V14.01,2013-05-08 05:23:00,
2013-05-07 23:28:00,47.1,30.4,29.83,West,271,7.0,10.0,52,0.00,,OVC090,0.00,VWS V14.01,2013-05-08 05:28:00,
2013-05-07 23:30:00,47.3,31.0,29.83,WSW,256,9.0,16.0,53,0.00,,CLR,0.00,VWS V14.01,2013-05-08 05:30:00,
2013-05-07 23:33:00,46.5,29.8,29.84,North,356,1.0,10.0,52,0.00,,OVC120,0.00,VWS V14.01,2013-05-08 05:33:00,
2013-05-07 23:39:00,45.9,29.3,29.84,NE,40,1.0,10.0,52,0.00,,OVC120,0.00,VWS V14.01,2013-05-08 05:39:00,
2013-05-07 23:44:00,45.3,29.6,29.84,ENE,72,3.0,10.0,54,0.00,,OVC120,0.00,VWS V14.01,2013-05-08 05:44:00,
2013-05-07 23:49:00,44.8,30.1,29.84,ENE,70,3.0,10.0,56,0.00,,OVC110,0.00,VWS V14.01,2013-05-08 05:49:00,
2013-05-07 23:54:00,44.6,30.3,29.84,East,100,2.0,10.0,57,0.00,,OVC110,0.00,VWS V14.01,2013-05-08 05:54:00,
2013-05-07 23:59:00,44.5,30.2,29.85,SSE,149,0.0,2.0,57,0.00,,OVC110,0.00,VWS V14.01,2013-05-08 05:59:00,